Total_Precipitation_Accumulation
0.03 0.08 0.23 0.68 1.68 1.42 0.77 0.11 0.05 0.05 0.04 0.08 0.01 0.02 0.03 0.04 0.12 0.31 0.02 0.01 0.00 0.00 0.00 0.01 0.01 0.00 0.02 0.06 0.00 0.01 0.00 0.01 0.03 0.02 0.01 0.03 0.01 0.00 0.00 0.00 0.00 0.03 0.09 0.13 0.11 0.16 0.30 0.20 0.16
0.10 0.15 0.24 1.18 1.05 1.21 0.66 0.27 0.12 0.03 0.03 0.07 0.01 0.01 0.02 0.01 0.00 0.00 0.00 0.01 0.01 0.00 0.00 0.00 0.01 0.01 0.00 0.02 0.02 0.02 0.00 0.00 0.00 0.01 0.01 0.01 0.01 0.00 0.00 0.00 0.00 0.02 0.10 0.16 0.22 0.23 0.36 0.38 0.43
0.08 0.23 0.23 0.57 0.47 0.31 0.20 0.05 0.04 0.02 0.02 0.04 0.02 0.01 0.00 0.00 0.00 0.00 0.00 0.01 0.00 0.00 0.00 0.00 0.01 0.00 0.00 0.00 0.02 0.00 0.00 0.00 0.00 0.01 0.01 0.00 0.00 0.00 0.00 0.02 0.08 0.10 0.14 0.15 0.16 0.15 0.19 0.26 0.25
0.01 0.08 0.20 0.12 0.21 0.05 0.09 0.05 0.05 0.03 0.04 0.03 0.01 0.07 0.01 0.00 0.00 0.00 0.00 0.02 0.00 0.00 0.00 0.00 0.01 0.00 0.00 0.00 0.00 0.00 0.00 0.00 0.00 0.00 0.02 0.00 0.00 0.00 0.04 0.10 0.09 0.05 0.03 0.08 0.08 0.08 0.17 0.30 0.30
0.00 0.01 0.02 0.02 0.00 0.00 0.04 0.02 0.06 0.06 0.09 0.07 0.01 0.05 0.05 0.02 0.00 0.00 0.01 0.02 0.00 0.00 0.00 0.00 0.03 0.00 0.01 0.00 0.00 0.00 0.00 0.00 0.01 0.02 0.05 0.02 0.00 0.02 0.08 0.05 0.02 0.05 0.06 0.06 0.05 0.16 0.33 0.31 0.18
0.00 0.01 0.00 0.00 0.00 0.00 0.00 0.00 0.03 0.10 0.12 0.08 0.85 0.13 0.11 0.07 0.01 0.00 0.03 0.02 0.00 0.00 0.00 0.00 0.03 0.01 0.01 0.01 0.01 0.01 0.00 0.01 0.04 0.04 0.03 0.03 0.01 0.05 0.03 0.05 0.05 0.06 0.07 0.13 0.05 0.09 0.28 0.27 0.18
0.00 0.00 0.00 0.00 0.00 0.00 0.00 0.00 0.01 0.07 0.38 0.10 0.14 0.65 0.18 0.07 0.04 0.03 0.02 0.01 0.00 0.02 0.00 0.00 0.00 0.01 0.02 0.02 0.03 0.04 0.01 0.04 0.06 0.02 0.08 0.13 0.05 0.06 0.03 0.06 0.06 0.02 0.05 0.17 0.07 0.11 0.20 0.25 0.17
0.00 0.00 0.00 0.00 0.00 0.00 0.00 0.00 0.03 0.01 0.03 0.04 0.04 0.62 0.40 0.04 0.05 0.03 0.01 0.03 0.02 0.04 0.02 0.00 0.00 0.00 0.01 0.02 0.04 0.03 0.05 0.07 0.06 0.07 0.14 0.13 0.07 0.04 0.07 0.10 0.13 0.08 0.08 0.12 0.14 0.12 0.22 0.18 0.22
0.00 0.00 0.00 0.00 0.00 0.00 0.00 0.01 0.02 0.00 0.01 0.05 0.04 0.07 0.02 0.02 0.00 0.00 0.00 0.05 0.07 0.04 0.05 0.00 0.00 0.01 0.01 0.01 0.03 0.01 0.02 0.12 0.08 0.14 0.19 0.11 0.08 0.26 0.19 0.09 0.18 0.10 0.06 0.14 0.29 0.19 0.17 0.08 0.08
0.00 0.00 0.00 0.00 0.00 0.00 0.00 0.00 0.00 0.00 0.04 0.09 0.08 0.03 0.02 0.01 0.00 0.00 0.00 0.02 0.04 0.06 0.06 0.01 0.00 0.00 0.00 0.01 0.07 0.00 0.05 0.04 0.10 0.40 0.46 0.35 0.36 0.94 0.10 0.24 0.31 0.18 0.15 0.33 0.25 0.10 0.12 0.08 0.07
0.00 0.00 0.00 0.00 0.00 0.00 0.00 0.00 0.00 0.00 0.07 0.21 0.03 0.07 0.04 0.00 0.01 0.00 0.00 0.00 0.01 0.01 0.00 0.01 0.01 0.00 0.00 0.00 0.02 0.01 0.03 0.07 0.09 0.26 0.20 0.27 0.77 0.05 0.08 0.56 0.93 0.73 0.63 0.56 0.19 0.08 0.09 0.12 0.08
0.00 0.00 0.00 0.00 0.00 0.00 0.00 0.00 0.00 0.00 0.02 0.05 0.04 0.07 0.03 0.00 0.02 0.01 0.01 0.00 0.00 0.01 0.00 0.19 0.10 0.00 0.00 0.00 0.04 0.08 0.05 0.09 0.05 0.14 0.05 0.07 0.06 0.11 0.26 0.39 1.31 0.31 0.41 0.51 0.35 0.21 0.05 0.03 0.06
0.00 0.00 0.00 0.00 0.00 0.00 0.00 0.00 0.00 0.00 0.02 0.07 0.05 0.20 0.09 0.00 0.00 0.03 0.06 0.11 0.07 0.01 0.01 0.06 0.03 0.00 0.00 0.02 0.03 0.06 0.06 0.02 0.03 0.03 0.01 0.02 0.01 0.11 0.41 0.37 0.20 0.88 0.38 0.48 0.47 0.36 0.17 0.06 0.04
0.00 0.00 0.00 0.00 0.00 0.00 0.00 0.00 0.00 0.01 0.05 0.24 0.05 0.02 0.01 0.01 0.02 0.03 0.03 0.06 0.05 0.02 0.01 0.02 0.00 0.01 0.02 0.02 0.00 0.13 0.03 0.00 0.01 0.00 0.00 0.00 0.00 0.15 0.59 0.41 1.17 0.27 0.30 0.31 0.49 0.70 0.35 0.15 0.03
0.00 0.00 0.00 0.00 0.00 0.00 0.00 0.00 0.00 0.03 0.00 0.01 0.03 0.02 0.03 0.06 0.07 0.05 0.02 0.00 0.02 0.01 0.10 0.02 0.00 0.00 0.02 0.04 0.03 0.21 0.06 0.01 0.01 0.00 0.00 0.00 0.00 0.04 0.33 0.49 0.52 0.51 1.08 0.49 0.55 0.44 0.46 0.39 0.10
0.00 0.00 0.00 0.00 0.00 0.00 0.00 0.00 0.09 0.21 0.00 0.01 0.05 0.04 0.02 0.09 0.12 0.13 0.06 0.03 0.02 0.04 0.06 0.02 0.00 0.00 0.01 0.06 0.05 0.30 0.21 0.12 0.00 0.00 0.00 0.00 0.00 0.03 0.29 0.78 0.41 0.66 0.47 0.68 0.65 0.40 0.40 0.45 0.38
0.00 0.00 0.00 0.00 0.00 0.00 0.00 0.00 0.00 0.00 0.00 0.01 0.04 0.05 0.13 0.22 0.17 0.16 0.10 0.05 0.03 0.05 0.08 0.14 0.01 0.00 0.00 0.09 0.16 0.46 0.32 0.22 0.08 0.02 0.05 0.00 0.00 0.00 0.09 0.48 0.32 0.15 0.17 0.25 0.51 0.48 0.51 0.97 0.41
0.00 0.00 0.00 0.00 0.00 0.00 0.00 0.00 0.00 0.00 0.01 0.02 0.03 0.04 0.42 0.53 0.28 0.22 0.04 0.04 0.06 0.02 0.05 0.10 0.04 0.00 0.04 0.40 0.31 0.60 0.32 0.29 0.16 0.02 0.02 0.00 0.00 0.01 0.04 0.11 0.16 0.06 0.13 0.16 0.16 0.18 0.35 0.31 0.36
0.00 0.00 0.00 0.00 0.00 0.00 0.00 0.00 0.00 0.00 0.00 0.00 0.00 0.04 0.11 0.37 0.26 0.08 0.07 0.01 0.05 0.06 0.00 0.01 0.02 0.11 0.13 0.11 0.25 0.41 0.09 0.19 0.22 0.16 0.07 0.00 0.00 0.00 0.02 0.04 0.07 0.06 0.15 0.25 0.20 0.15 0.11 0.33 0.41
0.00 0.00 0.00 0.00 0.00 0.00 0.00 0.00 0.00 0.01 0.00 0.02 0.02 0.01 0.10 0.74 0.40 0.05 0.06 0.02 0.01 0.05 0.00 0.00 0.05 0.14 0.12 0.19 0.24 0.13 0.21 0.10 0.09 0.13 0.16 0.02 0.00 0.01 0.01 0.04 0.03 0.10 0.21 0.36 0.28 0.19 0.25 0.47 0.49
0.00 0.00 0.00 0.00 0.00 0.00 0.00 0.01 0.07 0.08 0.06 0.01 0.02 0.03 0.02 0.19 0.46 0.16 0.07 0.05 0.01 0.01 0.05 0.07 0.01 0.31 0.42 0.27 0.61 0.48 0.41 0.16 0.28 0.08 0.06 0.03 0.05 0.05 0.02 0.16 0.05 0.07 0.10 0.34 0.50 0.15 0.19 0.49 0.70
0.00 0.00 0.00 0.00 0.00 0.00 0.00 0.01 0.03 0.10 0.32 0.11 0.02 0.01 0.01 0.01 0.22 0.25 0.08 0.08 0.02 0.03 0.22 0.23 0.19 0.28 0.50 0.56 0.28 0.25 0.30 0.14 0.05 0.04 0.01 0.05 0.01 0.04 0.11 0.11 0.04 0.04 0.07 0.27 0.25 0.12 0.23 0.40 0.66
0.00 0.00 0.00 0.00 0.00 0.00 0.00 0.00 0.13 0.24 0.12 0.07 0.02 0.03 0.05 0.03 0.11 0.37 0.20 0.31 0.51 0.74 0.86 0.79 0.46 0.40 0.49 0.40 0.47 0.57 0.34 0.26 0.19 0.08 0.12 0.13 0.09 0.09 0.13 0.22 0.14 0.07 0.05 0.13 0.16 0.09 0.16 0.31 0.39
0.00 0.00 0.00 0.00 0.00 0.00 0.00 0.00 0.07 0.02 0.03 0.03 0.01 0.02 0.02 0.01 0.02 0.21 0.18 0.47 1.19 1.81 1.77 1.66 1.19 1.13 0.89 0.78 0.65 0.47 0.40 0.47 0.44 0.48 0.62 0.14 0.17 0.07 0.13 0.25 0.21 0.25 0.16 0.09 0.08 0.12 0.08 0.16 0.43
0.00 0.00 0.00 0.00 0.00 0.01 0.00 0.00 0.01 0.01 0.02 0.02 0.01 0.02 0.00 0.00 0.00 0.12 0.23 0.43 0.73 1.23 0.85 1.44 1.26 1.17 1.79 1.73 0.91 0.65 0.85 0.70 0.56 0.38 0.45 0.15 0.21 0.12 0.05 0.08 0.10 0.12 0.24 0.22 0.17 0.16 0.09 0.18 0.39
0.00 0.00 0.00 0.00 0.00 0.01 0.00 0.00 0.03 0.07 0.04 0.19 0.12 0.04 0.06 0.03 0.02 0.02 0.14 0.43 0.50 0.37 0.23 0.46 0.62 0.78 1.18 0.91 0.64 0.66 0.52 0.34 0.19 0.22 0.15 0.07 0.04 0.10 0.09 0.16 0.13 0.13 0.19 0.18 0.20 0.25 0.13 0.32 0.43
0.00 0.00 0.00 0.00 0.00 0.00 0.00 0.01 0.02 0.17 0.21 0.10 0.23 0.18 0.13 0.10 0.03 0.03 0.06 0.10 0.26 0.42 0.17 0.25 0.26 0.27 0.49 0.38 0.41 0.31 0.36 0.29 0.14 0.21 0.22 0.10 0.07 0.07 0.01 0.04 0.07 0.11 0.15 0.16 0.36 0.40 0.24 0.35 0.33
0.00 0.00 0.00 0.00 0.00 0.00 0.00 0.00 0.02 0.14 0.23 0.04 0.17 0.37 0.13 0.09 0.01 0.02 0.04 0.08 0.14 0.11 0.11 0.16 0.23 0.18 0.25 0.32 0.44 0.33 0.42 0.31 0.24 0.19 0.10 0.06 0.07 0.02 0.06 0.17 0.22 0.16 0.31 0.39 0.47 0.26 0.20 0.35 0.37
0.00 0.00 0.00 0.00 0.00 0.00 0.00 0.03 0.01 0.05 0.06 0.13 0.39 0.39 0.09 0.07 0.00 0.00 0.01 0.06 0.11 0.11 0.16 0.20 0.11 0.06 0.12 0.23 0.34 0.59 0.36 0.17 0.15 0.15 0.11 0.07 0.12 0.08 0.11 0.76 0.52 0.31 0.29 0.35 0.36 0.31 0.36 0.55 0.33
0.00 0.00 0.00 0.00 0.00 0.00 0.00 0.00 0.01 0.05 0.27 0.14 0.09 0.04 0.06 0.06 0.00 0.00 0.01 0.03 0.08 0.11 0.12 0.22 0.19 0.11 0.18 0.23 0.18 0.33 0.31 0.26 0.22 0.18 0.20 0.15 0.08 0.11 0.16 0.23 0.19 0.17 0.32 0.27 0.18 0.17 0.26 0.29 0.29